DECAYED

CZ-6A DEB, 60829 (Decayed)

Orbit data source: Space-Track

CZ-6A DEB, 60829 was space debris in LEO originally from a launch on Tue, 06 Aug 2024 UTC launched from the Taiyaun Space Center, China (TSC). Debris objects in space refer to the collection of defunct objects orbiting the Earth. Examples of debris include non-operational satellites, rocket bodies, and fragments generated from explosions, collisions, or faulty payload assembly.

Not visible in the next 10 days
Identifier
60829, 2024-140HG
Orbit
Decayed
Country
Flag of CNCN / PRC
Related business
Manufacturer
SAST
Mission
Decayed spacecraft
Bus & Motor
Unknown
Mass
Unknown
Launch date (UTC)
2024-08-06 (1 year ago)
Launch vehicle
Unknown
Launch site
Taiyaun Space Center, China (TSC)
Object type
Payload
Rocket body
Debris
Shape & HBR
Unknown shape, 0.1 m
Radar Cross Section
Small (<0.1 m²)

Expand to show TLE details & history
Last TLE update: 2 months ago

TLE from 2 months ago
0 CZ-6A DEB
1 60829U 24140HG  25281.51609995  .03699040  26218-1  76174-2 0  9996
2 60829  89.1730 308.5122 0027630 205.0625 154.9326 16.03358399 62739
Epoch: 2025-10-08T12:23Z
TLE epoch observation values (Epoch: 2025-10-08T12:23:11.035Z)
Latitude
-0.00011°
Longitude
105.32669°
Altitude
285.077 km
Speed
7.727 km/s
True Right ascension
20h 34m 02s
True Declination
0° 00' 00"
Sunlit
Object was in full shadow at epoch
Visualization orbit readout
Latitude
Unknown
Longitude
Unknown
Altitude
Unknown
Speed
Unknown
Apparent Right ascension
Unknown
Apparent Declination
Unknown
Sunlit
N/A
Visualization observer readout
Local Sidereal Time
22:56:12
Azimuth
Unknown
Elevation
Unknown
Doppler factor
Unknown
Orbital elements
Apogee altitude
280.165 km
Perigee altitude
243.472 km
Semi-major axis
6,639.955 km
Eccentricity
0.00276
Inclination
89.173°
RAAN
308.5122°
Arg. of periapsis
205.0625°
True anomaly
155.06633°
Mean anomaly
154.9326°
Eccentric anomaly
154.99951°
Mean motion
4.01139 °/min
Orbital period
89.74 mins
BSTAR
0.0076174
Loading maneuver chart data...
Computing Atmospheric mass density...
Loading historical data...
Loading historical data...
Loading historical data...
Loading historical data...
Loading historical data...
Loading historical data...
Loading historical data...

Documentation

Showing up to 5 results
|